Peoria, IL

7:17 PM CDT on March 24, 2017 (GMT -0500)
Greater Peoria Regional

Weather History for KPIA - January, 2014

Change the Weather History Date:

Thursday, January 16, 2014

  Actual Average Record
Temperature  
Mean Temperature 29 °F 25 °F  
Max Temperature 42 °F 33 °F 62 °F (1990)
Min Temperature 15 °F 17 °F -21 °F (2009)
Degree Days  
Heating Degree Days 36 40  
Month to date heating degree days 718 640  
Since 1 July heating degree days 3144 2918  
Cooling Degree Days 0 0  
Month to date cooling degree days 0 0  
Year to date cooling degree days 0 0  
Moisture  
Dew Point 22 °F    
Average Humidity 70    
Maximum Humidity 85    
Minimum Humidity 55    
Precipitation  
Precipitation 0.09 in 0.06 in 0.83 in (2017)
Month to date precipitation 1.65 0.99  
Year to date precipitation 1.65 0.99  
Snow  
Snow 0.50 in 0.20 in 7.00 in (1936)
Month to date snowfall 11.1 3.6  
Since 1 July snowfall 20.2 11.8  
Snow Depth 0.00 in    
Sea Level Pressure  
Sea Level Pressure 29.70 in    
Wind  
Wind Speed 13 mph (West)    
Max Wind Speed 24 mph    
Max Gust Speed 34 mph    
Visibility 8 miles    
Events Fog , Snow    
T = Trace of Precipitation, MM = Missing Value Source: NWS Daily Summary

Daily Weather History Graph

Daily Weather History Graph

Search for Another Location

Airport or City:

Trip Planner

Search our weather history database for the weather conditions in past years. The results will help you decide how hot, cold, wet, or windy it might be!

Date:

Astronomy

Jan. 16, 2014 Rise Set
Actual Time 7:20 AM CST 4:57 PM CST
Civil Twilight 6:50 AM CST 5:27 PM CST
Nautical Twilight 6:16 AM CST 6:01 PM CST
Astronomical Twilight 5:43 AM CST 6:33 PM CST
Moon 5:49 PM CST (1/16) 7:13 AM CST (1/16)
Length of Visible Light 10h 37m
Length of Day
9h 37m
Full, 100% of the Moon is Illuminated
Jan 16
Full
Jan 23
Last Quarter
Jan 30
New
Feb 6
First Quarter
Feb 14
Full

Hourly Weather History & Observations

Time (CST) Temp. Windchill Dew Point Humidity Pressure Visibility Wind Dir Wind Speed Gust Speed Precip Events Conditions
12:54 AM 25.0 °F 13.6 °F 16.0 °F 69% 29.86 in 9.0 mi South 12.7 mph - 0.00 in   Overcast
1:54 AM 26.1 °F 12.0 °F 16.0 °F 66% 29.81 in 10.0 mi South 20.7 mph 25.3 mph N/A   Overcast
2:23 AM 26.1 °F 11.6 °F 18.0 °F 71% 29.74 in 10.0 mi South 21.9 mph 28.8 mph N/A   Overcast
2:54 AM 26.1 °F 13.6 °F 19.9 °F 78% 29.78 in 10.0 mi SSW 16.1 mph 24.2 mph N/A   Overcast
3:22 AM 26.1 °F 12.0 °F 21.0 °F 81% 29.73 in 10.0 mi SSW 20.7 mph - N/A   Overcast
3:54 AM 26.1 °F 13.1 °F 21.9 °F 84% 29.73 in 10.0 mi SSW 17.3 mph - N/A   Overcast
4:54 AM 27.0 °F 15.2 °F 23.0 °F 85% 29.71 in 10.0 mi South 15.0 mph - N/A   Overcast
5:54 AM 28.0 °F 16.5 °F 23.0 °F 81% 29.68 in 10.0 mi SSW 15.0 mph - N/A   Overcast
6:54 AM 28.0 °F 16.5 °F 24.1 °F 85% 29.68 in 10.0 mi SSW 15.0 mph - N/A   Overcast
7:05 AM 28.0 °F 17.5 °F 24.1 °F 85% 29.64 in 9.0 mi South 12.7 mph - N/A   Overcast
7:54 AM 28.0 °F 17.0 °F 24.1 °F 85% 29.66 in 10.0 mi SSW 13.8 mph - N/A   Mostly Cloudy
8:01 AM 28.9 °F 18.6 °F 24.1 °F 82% 29.63 in 10.0 mi SSW 12.7 mph - N/A   Mostly Cloudy
8:54 AM 30.0 °F 20.0 °F 25.0 °F 82% 29.67 in 10.0 mi SSW 12.7 mph - N/A   Overcast
9:54 AM 33.1 °F 23.0 °F 26.1 °F 75% 29.66 in 10.0 mi SSW 15.0 mph - N/A   Overcast
10:54 AM 37.0 °F 28.9 °F 26.1 °F 65% 29.63 in 10.0 mi WSW 12.7 mph - N/A   Mostly Cloudy
11:54 AM 41.0 °F 31.6 °F 27.0 °F 57% 29.60 in 10.0 mi West 20.7 mph 27.6 mph N/A   Overcast
12:54 PM 41.0 °F 31.1 °F 27.0 °F 57% 29.58 in 10.0 mi West 23.0 mph 34.5 mph N/A   Overcast
1:54 PM 36.0 °F 26.3 °F 30.9 °F 82% 29.60 in 9.0 mi West 16.1 mph 25.3 mph 0.01 in Snow Light Snow
2:03 PM 36.0 °F 25.3 °F 30.9 °F 82% 29.58 in 9.0 mi West 19.6 mph 26.5 mph 0.00 in   Overcast
2:10 PM 35.1 °F 25.2 °F 30.9 °F 85% 29.59 in 9.0 mi West 16.1 mph 26.5 mph 0.00 in Snow Light Snow
2:51 PM 35.6 °F 26.2 °F 26.6 °F 70% 29.61 in 10.0 mi WNW 15.0 mph 26.5 mph 0.00 in   Overcast
2:54 PM 36.0 °F 26.7 °F 27.0 °F 70% 29.63 in 10.0 mi WNW 15.0 mph 26.5 mph 0.00 in   Overcast
3:54 PM 35.1 °F 24.5 °F 21.9 °F 59% 29.67 in 10.0 mi WNW 18.4 mph 34.5 mph N/A   Overcast
4:54 PM 34.0 °F 26.6 °F 23.0 °F 64% 29.69 in 10.0 mi WNW 9.2 mph - N/A   Overcast
5:54 PM 32.0 °F 26.4 °F 21.0 °F 64% 29.70 in 10.0 mi NW 5.8 mph - N/A   Clear
6:54 PM 30.9 °F - 21.0 °F 67% 29.70 in 10.0 mi Calm Calm - N/A   Scattered Clouds
7:54 PM 30.0 °F - 21.9 °F 72% 29.71 in 10.0 mi Calm Calm - N/A   Mostly Cloudy
8:17 PM 30.0 °F - 21.9 °F 72% 29.69 in 5.0 mi Calm Calm - N/A   Haze
8:54 PM 30.0 °F 24.1 °F 21.0 °F 69% 29.73 in 9.0 mi North 5.8 mph - 0.00 in Snow Light Snow
9:04 PM 28.9 °F 19.8 °F 21.9 °F 75% 29.73 in 1.8 mi NNW 10.4 mph 16.1 mph 0.00 in Snow Light Snow
9:09 PM 28.0 °F 19.3 °F 23.0 °F 81% 29.73 in 0.8 mi NNW 9.2 mph - 0.02 in Snow Light Snow
9:18 PM 27.0 °F 19.5 °F 24.1 °F 89% 29.73 in 0.5 mi North 6.9 mph - 0.03 in Fog , Snow Snow
9:28 PM 27.0 °F 19.5 °F 24.1 °F 89% 29.73 in 0.2 mi Variable 6.9 mph - 0.06 in Fog , Snow Heavy Snow
9:38 PM 26.1 °F 16.2 °F 21.0 °F 81% 29.74 in 0.5 mi North 10.4 mph 21.9 mph 0.07 in Snow Snow
9:47 PM 24.1 °F 12.5 °F 19.9 °F 84% 29.74 in 1.2 mi NNW 12.7 mph 25.3 mph 0.07 in Snow Light Snow
9:52 PM 24.8 °F 14.0 °F 19.4 °F 80% 29.74 in 1.5 mi NW 11.5 mph 25.3 mph 0.07 in Snow Light Snow
9:54 PM 24.1 °F 15.2 °F 19.0 °F 81% 29.77 in 1.8 mi NW 8.1 mph 21.9 mph 0.07 in Snow Light Snow
9:58 PM 24.1 °F 13.1 °F 18.0 °F 77% 29.75 in 3.0 mi NNW 11.5 mph 20.7 mph 0.00 in Snow Light Snow
10:07 PM 23.0 °F 10.1 °F 16.0 °F 74% 29.75 in 8.0 mi NW 15.0 mph 21.9 mph 0.01 in Snow Light Snow
10:14 PM 23.0 °F 9.2 °F 14.0 °F 68% 29.76 in 9.0 mi WNW 17.3 mph 23.0 mph 0.01 in   Overcast
10:54 PM 19.0 °F 5.6 °F 10.9 °F 71% 29.81 in 9.0 mi NW 13.8 mph 20.7 mph 0.01 in   Overcast
11:40 PM 17.1 °F 2.5 °F 8.1 °F 68% 29.80 in 6.0 mi NW 15.0 mph 26.5 mph 0.00 in Snow Light Snow
11:54 PM 15.1 °F -0.1 °F 8.1 °F 74% 29.83 in 2.0 mi NW 15.0 mph 23.0 mph 0.00 in Snow Light Snow